Weather History for KHWO - April, 2014

Change the Weather History Date:

Wednesday, April 30, 2014

  Actual Average (KFLL) Record (KFLL)
Temperature  
Mean Temperature 84 °F 78 °F  
Max Temperature 90 °F 84 °F 97 °F (1971)
Min Temperature 78 °F 72 °F 51 °F (1916)
Degree Days  
Heating Degree Days 0 0  
Month to date heating degree days 0  
Since 1 July heating degree days 112  
Cooling Degree Days 19 13  
Month to date cooling degree days 337  
Year to date cooling degree days 947  
Growing Degree Days 34 (Base 50)    
Moisture  
Dew Point 72 °F    
Average Humidity 73    
Maximum Humidity 88    
Minimum Humidity 50    
Precipitation  
Precipitation 0.00 in 0.06 in 3.05 in (1964)
Month to date precipitation 2.89  
Year to date precipitation 12.84  
Snow  
Snow 0.00 in - - ()
Month to date snowfall  
Since 1 July snowfall  
Snow Depth -    
Sea Level Pressure  
Sea Level Pressure 30.04 in    
Wind  
Wind Speed 9 mph (SE)    
Max Wind Speed 16 mph    
Max Gust Speed 28 mph    
Visibility 10 miles    
Events      
T = Trace of Precipitation, MM = Missing Value Source: NWS Daily Summary

Daily Weather History Graph

Daily Weather History Graph

Search for Another Location

Airport or City:

Trip Planner

Search our weather history database for the weather conditions in past years. The results will help you decide how hot, cold, wet, or windy it might be!

Date:

Astronomy

Apr. 30, 2014 Rise Set
Actual Time 6:44 AM EDT 7:52 PM EDT
Civil Twilight 6:20 AM EDT 8:16 PM EDT
Nautical Twilight 5:51 AM EDT 8:45 PM EDT
Astronomical Twilight 5:22 AM EDT 9:14 PM EDT
Moon 7:47 AM EDT (4/30) 9:24 PM EDT (4/30)
Length of Visible Light 13h 55m
Length of Day
13h 07m
New Moon, 2% of the Moon is Illuminated
Apr 30
New Moon
May 6
First Quarter
May 14
Full
May 21
Last Quarter
May 28
New

Hourly Weather History & Observations

Time (EDT) Temp. Heat Index Dew Point Humidity Pressure Visibility Wind Dir Wind Speed Gust Speed Precip Events Conditions
12:53 AM 79.0 °F - 72.0 °F 79% 30.03 in 10.0 mi ESE 6.9 mph - N/A   Clear
1:53 AM 79.0 °F - 72.0 °F 79% 30.03 in 10.0 mi ESE 5.8 mph - N/A   Clear
2:53 AM 78.1 °F - 72.0 °F 81% 30.00 in 10.0 mi SSE 5.8 mph - N/A   Clear
3:53 AM 78.1 °F - 73.0 °F 84% 29.98 in 10.0 mi SE 5.8 mph - N/A   Clear
4:53 AM 79.0 °F - 73.9 °F 84% 29.99 in 10.0 mi SE 5.8 mph - N/A   Clear
5:53 AM 79.0 °F - 73.9 °F 84% 30.01 in 10.0 mi SE 9.2 mph - N/A   Partly Cloudy
6:53 AM 79.0 °F - 73.0 °F 82% 30.02 in 10.0 mi SE 6.9 mph - N/A   Clear
7:53 AM 80.1 °F 84.5 °F 73.9 °F 81% 30.03 in 10.0 mi SE 5.8 mph - N/A   Clear
8:53 AM 82.9 °F 88.0 °F 72.0 °F 69% 30.03 in 10.0 mi SE 11.5 mph - N/A   Clear
9:53 AM 84.9 °F 89.4 °F 70.0 °F 61% 30.05 in 10.0 mi ESE 13.8 mph - N/A   Clear
10:31 AM 84.0 °F 89.0 °F 71.1 °F 65% 30.06 in 10.0 mi SE 15.0 mph - N/A   Mostly Cloudy
11:53 AM 88.0 °F 93.8 °F 71.1 °F 57% 30.08 in 10.0 mi SSE 12.7 mph 23.0 mph N/A   Scattered Clouds
12:53 PM 90.0 °F 94.5 °F 69.1 °F 50% 30.07 in 10.0 mi SE 16.1 mph - N/A   Partly Cloudy
1:53 PM 87.1 °F 93.6 °F 72.0 °F 61% 30.07 in 10.0 mi SE 15.0 mph 21.9 mph N/A   Mostly Cloudy
2:53 PM 88.0 °F 93.8 °F 71.1 °F 57% 30.06 in 10.0 mi SE 11.5 mph 25.3 mph N/A   Scattered Clouds
3:53 PM 89.1 °F 95.0 °F 71.1 °F 55% 30.03 in 10.0 mi SE 13.8 mph 27.6 mph N/A   Scattered Clouds
4:53 PM 84.9 °F 90.7 °F 72.0 °F 65% 30.03 in 10.0 mi SE 10.4 mph - N/A   Clear
5:53 PM 84.0 °F 89.6 °F 72.0 °F 67% 30.02 in 10.0 mi SSE 12.7 mph - N/A   Clear
6:53 PM 82.9 °F 88.8 °F 73.0 °F 72% 30.03 in 10.0 mi SE 9.2 mph - N/A   Partly Cloudy
7:53 PM 82.0 °F 87.4 °F 73.0 °F 74% 30.05 in 10.0 mi ESE 5.8 mph - N/A   Clear
8:53 PM 81.0 °F 86.2 °F 73.9 °F 79% 30.05 in 10.0 mi SE 4.6 mph - N/A   Clear
9:53 PM 80.1 °F 84.5 °F 73.9 °F 81% 30.06 in 10.0 mi ESE 6.9 mph - N/A   Clear
10:53 PM 79.0 °F - 75.0 °F 88% 30.07 in 10.0 mi East 6.9 mph - N/A   Clear
11:53 PM 79.0 °F - 75.0 °F 88% 30.06 in 10.0 mi East 8.1 mph - N/A   Clear